GW0883 Weather Reports


time (UTC)temp
F
wind
direction
speed
knots
gust
knots
rain 1hr
in
rain 24hr
in
rain mn
in
humidity
%
barometer
mb
20260507150415 57 214 4.3 6.1 0.00 0.16 0.03 73 1010.6
20260507145514 58 297 2.6 3.5 0.00 0.16 0.03 74 1010.6
20260507144517 58 146 0.9 3.5 0.00 0.16 0.03 75 1010.7
20260507143515 57 240 1.7 5.2 0.00 0.16 0.03 76 1010.8
20260507142516 56 34 1.7 5.2 0.00 0.16 0.03 77 1010.8
20260507141516 56 273 1.7 3.5 0.00 0.16 0.03 77 1010.8
20260507140515 56 201 0.9 1.7 0.00 0.16 0.03 78 1010.9
20260507135516 56 244 4.3 6.1 0.00 0.16 0.03 79 1010.9
20260507134516 56 28 1.7 6.1 0.00 0.16 0.03 79 1010.6
20260507133515 56 240 1.7 3.5 0.00 0.16 0.03 80 1010.6
20260507132515 55 132 0.9 4.3 0.00 0.16 0.03 81 1010.8
20260507131517 55 325 0.9 2.6 0.00 0.16 0.03 81 1010.8
20260507130615 54 204 4.3 6.1 0.00 0.16 0.03 82 1010.8
20260507125714 54 229 0.9 3.5 0.00 0.16 0.03 82 1010.9
20260507124716 54 211 1.7 4.3 0.00 0.16 0.03 83 1011.0
20260507123814 53 4 0.9 4.3 0.00 0.16 0.03 83 1011.0
20260507122815 52 286 3.5 6.1 0.00 0.16 0.03 84 1010.9
20260507121817 52 266 1.7 5.2 0.00 0.16 0.03 84 1010.9
20260507120816 51 239 0.0 2.6 0.00 0.16 0.03 83 1011.1
20260507115817 51 253 3.5 5.2 0.00 0.16 0.03 84 1010.9
20260507114817 50 333 0.9 2.6 0.00 0.16 0.03 83 1010.9
20260507112915 49 225 0.9 2.6 0.00 0.16 0.03 84 1010.6
20260507111918 48 229 0.9 2.6 0.00 0.16 0.03 83 1010.8
20260507110915 48 223 0.9 1.7 0.00 0.16 0.03 83 1010.7
20260507105915 48 204 0.0 0.9 0.00 0.16 0.03 84 1010.6
20260507104916 47 202 0.0 0.9 0.00 0.16 0.03 84 1010.7
20260507102916 47 238 0.0 0.9 0.00 0.16 0.03 84 1010.4
20260507102015 47 223 0.9 2.6 0.01 0.16 0.03 84 1010.1
20260507101014 47 225 0.0 0.0 0.01 0.16 0.03 83 1009.9
20260507100019 47 67 0.0 0.0 0.01 0.16 0.03 83 1009.7
20260507095016 47 225 0.0 0.9 0.01 0.16 0.03 83 1010.0
20260507094015 47 67 0.0 0.0 0.01 0.16 0.03 83 1009.6
20260507093016 47 202 0.0 0.0 0.02 0.16 0.03 82 1010.2
20260507092016 47 202 0.0 0.0 0.01 0.15 0.02 82 1010.0
20260507091017 48 315 0.0 0.0 0.01 0.15 0.02 83 1010.1
20260507090015 48 225 0.0 0.0 0.01 0.15 0.02 83 1010.3
20260507085017 48 245 1.7 3.5 0.01 0.15 0.02 82 1010.6
20260507084016 48 270 0.0 0.0 0.01 0.15 0.02 82 1010.5
20260507083017 48 270 0.0 0.9 0.00 0.14 0.01 82 1010.1
20260507082016 48 209 0.9 1.7 0.01 0.14 0.01 82 1010.1
20260507081016 48 225 0.0 1.7 0.01 0.14 0.01 82 1010.0
20260507080017 48 247 0.9 1.7 0.01 0.14 0.01 83 1010.0
20260507075016 49 202 0.0 0.0 0.01 0.14 0.01 83 1010.0
20260507074017 49 310 0.0 0.9 0.01 0.14 0.01 82 1010.2
20260507073114 50 247 0.0 0.0 0.01 0.14 0.01 82 1010.1
20260507072116 51 276 0.0 0.9 0.00 0.13 0.00 83 1010.2
20260507071117 51 225 0.0 0.9 0.00 0.13 0.00 83 1009.6
20260507063216 51 225 0.0 0.0 0.00 0.13 0.00 84 1009.3
20260507062216 51 214 0.0 0.9 0.00 0.13 0.00 85 1009.5
20260507061216 52 277 0.9 1.7 0.00 0.13 0.00 85 1009.7
20260507060217 52 133 0.0 0.9 0.00 0.13 0.00 85 1009.6
20260507055315 52 315 0.0 0.9 0.00 0.13 0.00 84 1009.5
20260507054315 53 176 1.7 2.6 0.00 0.13 0.00 85 1009.6
20260507053316 53 8 0.9 2.6 0.00 0.13 0.00 85 1009.7
20260507052319 54 226 0.0 0.0 0.00 0.13 0.00 86 1009.7
20260507051316 54 225 0.0 0.0 0.00 0.13 0.00 85 1009.8
20260507050314 54 225 0.0 1.7 0.00 0.13 0.00 86 1009.8
20260507050216 54 225 0.0 0.9 0.00 0.13 0.00 85 1009.8
20260507045215 55 225 0.0 0.9 0.01 0.13 0.00 86 1009.7
20260507044217 55 216 1.7 2.6 0.01 0.13 0.00 85 1009.9
20260507043217 55 247 0.0 1.7 0.01 0.13 0.00 86 1009.7
20260507042216 56 300 0.0 1.7 0.01 0.13 0.00 86 1009.5
20260507041215 56 202 0.0 0.0 0.01 0.13 0.00 85 1009.6
20260507040217 57 208 2.6 2.6 0.01 0.13 0.00 86 1009.7
20260507035221 57 188 0.9 1.7 0.00 0.12 0.12 85 1009.6
20260507034221 58 178 0.0 1.7 0.00 0.12 0.12 86 1009.6
20260507032320 58 360 0.0 0.0 0.00 0.12 0.12 86 1009.3
20260507031320 58 225 0.0 0.0 0.00 0.12 0.12 85 1008.9
20260507030321 59 250 2.6 5.2 0.00 0.12 0.12 85 1008.9
20260507025320 59 256 2.6 6.1 0.00 0.12 0.12 84 1008.9
20260507024320 59 256 0.9 1.7 0.00 0.12 0.12 85 1008.6
20260507023320 59 270 0.0 0.0 0.00 0.12 0.12 84 1008.6
20260507022321 59 203 0.0 0.9 0.00 0.12 0.12 84 1008.7
20260507021322 59 248 1.7 2.6 0.00 0.12 0.12 84 1008.7
20260507020418 59 225 0.9 2.6 0.00 0.12 0.12 83 1008.5
20260507015321 59 224 2.6 5.2 0.00 0.12 0.12 84 1008.5
20260507014419 58 225 1.7 4.3 0.00 0.12 0.12 83 1008.7
20260507011420 59 199 0.9 4.3 0.00 0.12 0.12 83 1008.5
20260507010422 59 211 1.7 3.5 0.00 0.12 0.12 81 1008.7
20260507005422 58 224 3.5 6.1 0.00 0.12 0.12 81 1008.7
20260507004420 58 220 3.5 6.1 0.00 0.12 0.12 82 1008.8
20260507003422 58 223 0.9 4.3 0.00 0.12 0.12 81 1008.6
20260507002421 58 222 1.7 2.6 0.00 0.12 0.12 81 1008.7
20260507001519 58 260 0.0 1.7 0.00 0.12 0.12 80 1008.6
20260507000520 58 214 1.7 3.5 0.00 0.12 0.12 80 1008.6
20260506235522 58 206 0.9 3.5 0.01 0.12 0.12 79 1008.3
20260506234620 58 225 0.9 2.6 0.02 0.12 0.12 78 1008.4
20260506233621 58 213 2.6 5.2 0.03 0.12 0.12 78 1008.3
20260506232621 58 205 0.9 2.6 0.03 0.12 0.12 78 1008.4
20260506231719 58 217 2.6 4.3 0.03 0.12 0.12 77 1008.3
20260506230719 58 222 0.9 1.7 0.03 0.12 0.12 77 1008.2
20260506225721 59 217 2.6 5.2 0.02 0.11 0.11 77 1008.3
20260506224721 59 215 4.3 8.7 0.02 0.10 0.10 75 1008.4
20260506223720 59 214 1.7 2.6 0.01 0.09 0.09 75 1008.5
20260506222722 59 202 0.9 2.6 0.01 0.09 0.09 74 1008.6
20260506221722 59 225 2.6 5.2 0.01 0.09 0.09 74 1008.5
20260506220820 59 217 1.7 3.5 0.01 0.09 0.09 74 1008.6
20260506214837 59 208 0.9 2.6 0.00 0.08 0.08 71 1008.8
20260506213921 59 219 3.5 6.1 0.00 0.08 0.08 71 1008.8
20260506212922 59 213 0.9 3.5 0.00 0.08 0.08 70 1009.0
20260506211922 59 223 2.6 5.2 0.01 0.08 0.08 70 1009.1
20260506211020 59 222 2.6 6.1 0.02 0.08 0.08 70 1009.0
20260506210021 59 199 1.7 2.6 0.02 0.08 0.08 69 1009.2
20260506204120 59 218 1.7 3.5 0.03 0.08 0.08 67 1009.3
20260506202123 59 222 5.2 8.7 0.03 0.07 0.07 65 1009.5
20260506201120 60 223 1.7 5.2 0.04 0.07 0.06 64 1009.5
20260506200120 60 214 1.7 4.3 0.04 0.06 0.06 64 1009.4
20260506195120 61 222 0.9 2.6 0.05 0.06 0.06 64 1009.5
20260506194219 61 211 0.9 3.5 0.04 0.05 0.05 62 1009.4
20260506193222 61 205 2.6 3.5 0.05 0.05 0.05 61 1009.4
20260506191321 62 223 3.5 7.0 0.03 0.03 0.03 61 1009.5
20260506190320 62 209 1.7 2.6 0.02 0.02 0.02 60 1009.4
20260506185419 63 210 1.7 5.2 0.02 0.02 0.01 59 1009.4
20260506184421 64 217 1.7 4.3 0.01 0.01 0.01 59 1009.5
20260506183421 65 225 2.6 4.3 0.00 0.00 0.00 59 1009.7
20260506181420 67 209 3.5 6.1 0.00 0.00 0.00 58 1009.6
20260506180519 69 220 3.5 7.8 0.00 0.00 0.00 58 1009.7
20260506175522 70 218 6.1 8.7 0.00 0.00 0.00 59 1009.8
20260506172622 72 226 4.3 8.7 0.00 0.00 0.00 61 1009.6
20260506171620 72 214 1.7 4.3 0.00 0.00 0.00 60 1009.6
20260506170619 72 230 2.6 5.2 0.00 0.00 0.00 62 1009.6
20260506165622 72 224 3.5 6.1 0.00 0.00 0.00 61 1009.8
20260506164619 72 208 4.3 8.7 0.00 0.00 0.00 62 1009.8
20260506163621 71 203 0.9 1.7 0.00 0.00 0.00 63 1009.9
20260506162621 71 227 2.6 3.5 0.00 0.00 0.00 64 1010.2
20260506161620 70 217 3.5 8.7 0.00 0.00 0.00 64 1010.3
20260506160719 70 203 4.3 8.7 0.00 0.00 0.00 64 1010.5
20260506154818 70 218 2.6 3.5 0.00 0.00 0.00 66 1010.8
20260506153821 70 243 1.7 4.3 0.00 0.00 0.00 65 1011.1
20260506152919 70 217 4.3 7.8 0.00 0.00 0.00 66 1011.2
20260506151920 70 229 7.0 12.2 0.00 0.00 0.00 67 1011.2
20260506151836 70 215 7.8 12.2 0.00 0.00 0.00 66 1011.1